Hourly Weather Rudka

Today, 20 April, Tuesday

Time Temperature Precipitation Wind Pressure Humidity
00:00 +7°C° 0 mm 1 mps 747 mmHg 61%
01:00 +7°C° 0 mm 1 mps 747 mmHg 61%
02:00 +7°C° 0 mm 1 mps 747 mmHg 63%
03:00 +7°C° 0 mm 1 mps 747 mmHg 65%
04:00 +6°C° 0 mm 0 mps 747 mmHg 67%
05:00 +7°C° 0 mm 0 mps 747 mmHg 66%
06:00 +8°C° 0 mm 0 mps 747 mmHg 64%
07:00 +9°C° 0 mm 0 mps 747 mmHg 63%
08:00 +12°C° 0 mm 1 mps 746 mmHg 58%
09:00 +13°C° 0 mm 1 mps 746 mmHg 53%
10:00 +15°C° 0 mm 1 mps 746 mmHg 48%
11:00 +15°C° 0 mm 1 mps 746 mmHg 46%
12:00 +15°C° 0 mm 2 mps 746 mmHg 44%
13:00 +16°C° 0 mm 2 mps 745 mmHg 41%
14:00 +15°C° 0 mm 2 mps 745 mmHg 43%
15:00 +15°C° 0 mm 2 mps 745 mmHg 44%
16:00 +15°C° 0 mm 2 mps 745 mmHg 45%
17:00 +14°C° 0 mm 2 mps 744 mmHg 51%
18:00 +12°C° 0 mm 2 mps 744 mmHg 58%
19:00 +10°C° 0 mm 2 mps 744 mmHg 64%
20:00 +9°C° 0 mm 2 mps 744 mmHg 66%
21:00 +9°C° 0 mm 1 mps 744 mmHg 69%
22:00 +8°C° 0 mm 1 mps 744 mmHg 71%
23:00 +8°C° 0 mm 1 mps 744 mmHg 71%

Tomorrow, 21 April, Wednesday

Time Temperature Precipitation Wind Pressure Humidity
00:00 +7°C° 0 mm 0 mps 744 mmHg 72%
01:00 +6°C° 0 mm 0 mps 744 mmHg 72%
02:00 +6°C° 0 mm 0 mps 743 mmHg 74%
03:00 +6°C° 0 mm 1 mps 743 mmHg 76%
04:00 +6°C° 0 mm 1 mps 743 mmHg 78%
05:00 +7°C° 0 mm 1 mps 743 mmHg 73%
06:00 +7°C° 0 mm 2 mps 743 mmHg 69%
07:00 +8°C° 0 mm 2 mps 743 mmHg 65%
08:00 +10°C° 0 mm 2 mps 743 mmHg 58%
09:00 +11°C° 0 mm 3 mps 742 mmHg 52%
10:00 +13°C° 0 mm 4 mps 742 mmHg 46%
11:00 +13°C° 0.1 mm 4 mps 742 mmHg 45%
12:00 +13°C° 0.1 mm 5 mps 742 mmHg 45%
13:00 +14°C° 0.1 mm 5 mps 742 mmHg 45%
14:00 +13°C° 0 mm 5 mps 741 mmHg 47%
15:00 +11°C° 0 mm 6 mps 741 mmHg 50%
16:00 +11°C° 0 mm 6 mps 741 mmHg 53%
17:00 +9°C° 0 mm 6 mps 741 mmHg 61%
18:00 +7°C° 0 mm 5 mps 741 mmHg 70%
19:00 +6°C° 0 mm 5 mps 741 mmHg 79%
20:00 +5°C° 0.2 mm 5 mps 741 mmHg 78%
21:00 +3°C° 0.2 mm 5 mps 741 mmHg 78%
22:00 +4°C° 0.2 mm 4 mps 741 mmHg 78%
23:00 +2°C° 0 mm 5 mps 741 mmHg 79%

Day after tomorrow, 22 April, Thursday

Time Temperature Precipitation Wind Pressure Humidity
00:00 +1°C° 0 mm 5 mps 741 mmHg 79%
01:00 +1°C° 0 mm 6 mps 740 mmHg 79%
02:00 +1°C° 0 mm 6 mps 740 mmHg 81%
03:00 -1°C° 0 mm 6 mps 740 mmHg 82%
04:00 -1°C° 0 mm 7 mps 740 mmHg 83%
05:00 -1°C° 0 mm 7 mps 740 mmHg 82%
06:00 0°C° 0 mm 7 mps 740 mmHg 81%
07:00 0°C° 0 mm 7 mps 740 mmHg 79%
08:00 +2°C° 0.1 mm 7 mps 740 mmHg 79%
09:00 +2°C° 0.1 mm 7 mps 740 mmHg 78%
10:00 +2°C° 0.1 mm 7 mps 741 mmHg 78%
11:00 +3°C° 0.1 mm 7 mps 741 mmHg 70%
12:00 +4°C° 0.1 mm 8 mps 741 mmHg 62%
13:00 +5°C° 0.1 mm 8 mps 741 mmHg 54%
14:00 +4°C° 0.1 mm 8 mps 741 mmHg 55%
15:00 +4°C° 0.1 mm 7 mps 741 mmHg 56%
16:00 +3°C° 0.1 mm 7 mps 742 mmHg 57%
17:00 +3°C° 0.1 mm 7 mps 742 mmHg 64%
18:00 +2°C° 0.1 mm 6 mps 742 mmHg 70%
19:00 +1°C° 0.1 mm 5 mps 742 mmHg 76%
20:00 +1°C° 0.1 mm 5 mps 742 mmHg 80%
21:00 +1°C° 0.1 mm 5 mps 742 mmHg 83%
22:00 0°C° 0.1 mm 5 mps 742 mmHg 87%
23:00 0°C° 0 mm 5 mps 742 mmHg 87%

23 April, Friday

Time Temperature Precipitation Wind Pressure Humidity
00:00 0°C° 0 mm 4 mps 742 mmHg 86%
01:00 0°C° 0 mm 4 mps 743 mmHg 86%
02:00 0°C° 0.1 mm 5 mps 743 mmHg 88%
03:00 0°C° 0.1 mm 5 mps 743 mmHg 90%
04:00 0°C° 0.1 mm 5 mps 744 mmHg 92%
05:00 0°C° 0.2 mm 5 mps 744 mmHg 89%
06:00 +1°C° 0.2 mm 6 mps 745 mmHg 86%
07:00 +1°C° 0.2 mm 6 mps 745 mmHg 84%
08:00 +2°C° 0.2 mm 6 mps 746 mmHg 74%
09:00 +3°C° 0.2 mm 7 mps 746 mmHg 65%
10:00 +3°C° 0.2 mm 7 mps 747 mmHg 55%
11:00 +4°C° 0 mm 7 mps 747 mmHg 48%
12:00 +4°C° 0 mm 8 mps 748 mmHg 41%
13:00 +4°C° 0 mm 8 mps 748 mmHg 34%
14:00 +4°C° 0 mm 8 mps 749 mmHg 36%
15:00 +4°C° 0 mm 8 mps 749 mmHg 39%
16:00 +4°C° 0 mm 7 mps 749 mmHg 41%
17:00 +4°C° 0 mm 6 mps 749 mmHg 45%
18:00 +3°C° 0 mm 5 mps 749 mmHg 49%
19:00 +3°C° 0 mm 4 mps 749 mmHg 54%
20:00 +2°C° 0 mm 3 mps 749 mmHg 56%
21:00 +1°C° 0 mm 3 mps 749 mmHg 58%
22:00 +2°C° 0 mm 2 mps 749 mmHg 60%
23:00 +2°C° 0 mm 2 mps 749 mmHg 59%

24 April, Saturday

Time Temperature Precipitation Wind Pressure Humidity
00:00 +2°C° 0 mm 2 mps 749 mmHg 57%
01:00 +1°C° 0 mm 3 mps 749 mmHg 56%
02:00 +1°C° 0 mm 2 mps 748 mmHg 57%
03:00 +1°C° 0 mm 2 mps 748 mmHg 59%
04:00 +1°C° 0 mm 2 mps 748 mmHg 60%
05:00 +2°C° 0 mm 2 mps 748 mmHg 58%
06:00 +3°C° 0 mm 2 mps 748 mmHg 56%
07:00 +5°C° 0 mm 2 mps 748 mmHg 54%
08:00 +6°C° 0 mm 2 mps 748 mmHg 51%
09:00 +7°C° 0 mm 3 mps 748 mmHg 48%
10:00 +8°C° 0 mm 3 mps 748 mmHg 44%
11:00 +7°C° 0.1 mm 4 mps 748 mmHg 43%
12:00 +7°C° 0.1 mm 5 mps 748 mmHg 42%
13:00 +7°C° 0.1 mm 5 mps 749 mmHg 41%
14:00 +7°C° 0 mm 5 mps 749 mmHg 39%
15:00 +6°C° 0 mm 5 mps 749 mmHg 37%
16:00 +6°C° 0 mm 5 mps 750 mmHg 35%
17:00 +5°C° 0 mm 4 mps 750 mmHg 40%
18:00 +3°C° 0 mm 3 mps 750 mmHg 46%
19:00 +3°C° 0 mm 2 mps 750 mmHg 51%
20:00 +3°C° 0 mm 2 mps 750 mmHg 55%
21:00 +1°C° 0 mm 3 mps 750 mmHg 60%
22:00 +1°C° 0 mm 3 mps 750 mmHg 64%
23:00 +1°C° 0 mm 3 mps 750 mmHg 65%

25 April, Sunday

Time Temperature Precipitation Wind Pressure Humidity
00:00 +1°C° 0 mm 3 mps 750 mmHg 66%
01:00 0°C° 0 mm 3 mps 750 mmHg 66%
02:00 0°C° 0 mm 3 mps 750 mmHg 68%
03:00 0°C° 0 mm 3 mps 751 mmHg 70%
04:00 0°C° 0 mm 3 mps 751 mmHg 72%
05:00 0°C° 0 mm 4 mps 751 mmHg 68%
06:00 +1°C° 0 mm 4 mps 751 mmHg 64%
07:00 +2°C° 0 mm 5 mps 752 mmHg 60%
08:00 +3°C° 0 mm 5 mps 752 mmHg 54%
09:00 +4°C° 0 mm 6 mps 752 mmHg 48%
10:00 +5°C° 0 mm 6 mps 752 mmHg 42%
11:00 +5°C° 0 mm 6 mps 753 mmHg 41%
12:00 +5°C° 0 mm 6 mps 753 mmHg 40%
13:00 +5°C° 0 mm 6 mps 753 mmHg 39%
14:00 +6°C° 0 mm 5 mps 753 mmHg 38%
15:00 +6°C° 0 mm 5 mps 753 mmHg 38%
16:00 +6°C° 0 mm 4 mps 753 mmHg 37%
17:00 +5°C° 0 mm 4 mps 753 mmHg 42%
18:00 +4°C° 0 mm 3 mps 753 mmHg 47%
19:00 +4°C° 0 mm 2 mps 753 mmHg 52%
20:00 +2°C° 0 mm 3 mps 753 mmHg 59%
21:00 +2°C° 0 mm 3 mps 753 mmHg 66%
22:00 +1°C° 0 mm 3 mps 752 mmHg 73%
23:00 +1°C° 0 mm 3 mps 752 mmHg 78%
Show more